15:08
Airports
History
Links
Donate
Help keep this website running!
PayPal
Bitcoin
This page is community maintained. The information is intended for PC simulator navigation or reference.
Always use approved charts for navigation.
SBSJ
Sao Jose Dos Campos
Sao Jose Dos Campos (SBSJ)
São José dos Campos, São Paulo, Brazil (12227)
(C)
Lat/Lng:23° 13' 41.42" S / 45° 51' 45.86" W
-23.228171 / -45.862738
Elevation:2120'ft / 646mMSL
ID / ICAO:SBSJ
Runways:1
Longest:15-33
Asphalt 2,655m / 8,712ft
Controlled:Yes
METAR15:00 GMT 2017-11-20
Altimeter: 29.97
Visibility: 6.2 statute miles
Wind: 5 knots (from 110°)
Temp: 23°c / 73°f
Humidity: 78.2%

METAR: SBSJ 201500Z 11005KT 9999 -RA BKN014 OVC030 23/19 Q1015

(Powered by phpweather)
Airport Radio Frequencies
Ground: 121.9
Tower: 118.5
Approach: 119.25, 129.05
Runway 15 / 33
Dimensions:2655.4 x 45.1m 8712' x 148'ft
Surface:Asphalt
Edge Lights:High intensity
Runway 15 [A]Runway 33 [B]
Heading:135°TH 315°TH
Lat:
Lng:
23° 13' 10.86"S
45° 52' 18.96"W
23° 14' 11.97"S
45° 51' 12.75"W
ALS:MALS
User Notes and Comments
23° 13' 41.42" S / 45° 51' 45.86" W
Distance To
Airport ID:
Nearby Airports
4 Fazenda Centro de Voo a Vela Ipua 13.9 NM
SDIP NNE 23°
4 Fazenda Maristela 25.2 NM
SDMA NE 41°
(C) BASE DE AVIACAO DE TAUBATE 25.6 NM
SBTA ENE 59°
4 Fazenda Irohy 26.7 NM
SDIH SSW 209°
4 Monte Verde 27.8 NM
SNEJ NNW 336°
(U) FAZENDA SANTA HELENA 33.1 NM
SDZH NE 45°
4 Pindamonhangaba 33.7 NM
SDPD NE 54°
VFR Chart
Flight Planning at SkyVector.com